Back to catalog

STARLINK-11685

AliveCommunicationsVLEO
NORAD 63552·PAYLOAD·🇺🇸 United States

Launched Apr 13, 2025 from Cape Canaveral Space Force Station

Loading…

Next Passes (next 24 hours)

TLE

FreshSource: CelesTrak SupGP

Epoch: Sep 14, 2026, 14:59 UTC

1 63552C 25075E   26257.62479167  .00038132  00000+0  29618-3 0  2576
2 63552  43.0003  94.6763 0001709 250.9754 209.2690 15.70819040    11

Track STARLINK-11685 in real time with AllMySat

Download on the App Store